Location: Bradford+West+Gwillimbury,+ON,+Canadà
(44.1162°N, 79.5735°W)
Time: 15:44:40
(UTC-04:00)

STARLINK-2741 - Pass Details

Date: 22 June 2021
Orbit: 348 x 351 km, 53.0° (Epoch: 05 August)

Event Time Altitude Azimuth Distance (km) Brightness Sun altitude
Exits shadow 04:45:05 - 194° (SSW) 1,556 5.4 -7.8°
Reaches altitude 10° 04:45:37 10° 189° (S) 1,371 5.2 -7.8°
Maximum altitude 04:48:06 23° 134° (SE) 859 4.7 -7.4°
Drops below altitude 10° 04:50:37 10° 80° (E) 1,384 6.7 -7.1°
Sets 04:52:54 0° 65° (ENE) 2,240 8.5 -6.8°
